(325353) = 2008 KJ38

Discovered at Kitt Peak on 2008-05-30 by Spacewatch.

Orbit

Orbit type: Main Belt

Note: WebGL enabled browser required.

epoch2024-03-31.0
epoch JD2460400.5
perihelion date2022-03-21.89148
perihelion JD2459660.39148
argument of perihelion (°)125.04945
ascending node (°)196.84988
inclination (°)4.61029
eccentricity0.1604985
perihelion distance (AU)2.2327858
Tisserand w.r.t. Jupiter3.4
ΔV w.r.t. Earth (km/sec)9.5
semimajor axis (AU)2.6596567
mean anomaly (°)168.17479
mean daily motion (°/day)0.22722990
aphelion distance (AU)3.087
period (years)4.34
P-vector [x]0.78616003
P-vector [y]-0.58997641
P-vector [z]-0.18406587
Q-vector [x]0.61758366
Q-vector [y]0.73872185
Q-vector [z]0.26996378
absolute magnitude17.08
phase slope0.15
uncertainty0
referenceMPEC 2024-C60
observations used284
oppositions12
arc length (days)10451
first opposition used1995
last opposition used2024
residual rms (arc-secs)0.80
perturbers coarse indicatorM-v
perturbers precise indicator003Ek
first observation date used1995-06-26.0
last observation date used2024-02-05.0
computer nameMPCLINUX
JD of orbit computation2456612.621746
perihelion JD uncertainty (days)1.0607E-04
argument of perihelion uncertainty (°)5.4616E-05
ascending node uncertainty (°)4.4451E-05
inclination uncertainty (°)5.3624E-06
eccentricity uncertainty 3.9330E-08
perihelion distance uncertainty (AU)1.0485E-07
Minimum Orbit Intersection Distances (in AU)
for orbit epoch: 2460200.5, reference: E2024-C60
Mercury1.82009
Venus1.51224
Earth1.22366
Mars0.8644
Jupiter2.23576
Saturn6.08374
Uranus15.3931
Neptune27.1658

Observations

298 total observations over interval: 1995 06 26.19749 – 2024 02 05.175354
These data are available for download (format description).

Date (UT) J2000 RA J2000 Dec Magn Location Ref
1995 06 26.19749 15 24 19.91 -13 03 43.5 21.9 V 691 – Steward Observatory, Kitt Peak-Spacewatch MPS 309521
1995 06 26.21909 15 24 19.45 -13 03 42.0 21.7 V 691 – Steward Observatory, Kitt Peak-Spacewatch MPS 309521
1995 06 26.24069 15 24 19.00 -13 03 40.4 21.2 V 691 – Steward Observatory, Kitt Peak-Spacewatch MPS 309521
2005 11 01.41492 04 53 20.47 +17 43 34.0 21.0 V G96 – Mt. Lemmon Survey MPS 309521
2005 11 01.42326 04 53 20.14 +17 43 32.3 20.6 V G96 – Mt. Lemmon Survey MPS 309521
2005 11 01.43162 04 53 19.86 +17 43 30.9 20.8 V G96 – Mt. Lemmon Survey MPS 309521
2005 11 01.43988 04 53 19.50 +17 43 29.2 20.5 V G96 – Mt. Lemmon Survey MPS 309521
2008 05 11.32287 15 41 28.99 -14 56 35.7   691 – Steward Observatory, Kitt Peak-Spacewatch MPS 251453
2008 05 11.34056 15 41 28.02 -14 56 30.8   691 – Steward Observatory, Kitt Peak-Spacewatch MPS 251453
2008 05 11.35825 15 41 27.07 -14 56 25.9   691 – Steward Observatory, Kitt Peak-Spacewatch MPS 251453
2008 05 30.34233 15 24 47.09 -13 29 21.8 20.6 V 691 – Steward Observatory, Kitt Peak-Spacewatch MPS 251080
2008 05 30.35994 15 24 46.20 -13 29 17.4 20.6 V 691 – Steward Observatory, Kitt Peak-Spacewatch MPS 251080
2008 05 30.37757 15 24 45.30 -13 29 13.2 20.4 V 691 – Steward Observatory, Kitt Peak-Spacewatch MPS 251080
2008 06 03.27031 15 21 40.86 -13 14 22.4 20.5 V 691 – Steward Observatory, Kitt Peak-Spacewatch MPS 251080
2008 06 03.28794 15 21 40.03 -13 14 19.1 20.4 V 691 – Steward Observatory, Kitt Peak-Spacewatch MPS 251080
2008 06 03.30559 15 21 39.19 -13 14 14.9 20.6 V 691 – Steward Observatory, Kitt Peak-Spacewatch MPS 251080
2008 06 07.23250 15 18 48.52 -13 00 56.3 20.7 V 691 – Steward Observatory, Kitt Peak-Spacewatch MPS 251453
2008 06 07.25016 15 18 47.75 -13 00 53.2 20.6 V 691 – Steward Observatory, Kitt Peak-Spacewatch MPS 251453
2008 06 07.26782 15 18 47.00 -13 00 49.6 20.6 V 691 – Steward Observatory, Kitt Peak-Spacewatch MPS 251453
2009 09 18.41631 02 14 36.35 +13 06 55.9 20.6 V 691 – Steward Observatory, Kitt Peak-Spacewatch MPS 297782
2009 09 18.41879 02 14 36.33 +13 06 55.5 20.5 V 691 – Steward Observatory, Kitt Peak-Spacewatch MPS 297782
2009 09 18.43398 02 14 35.98 +13 06 52.0 20.5 V 691 – Steward Observatory, Kitt Peak-Spacewatch MPS 297782
2009 09 18.43645 02 14 35.94 +13 06 51.0 20.6 V 691 – Steward Observatory, Kitt Peak-Spacewatch MPS 297782
2009 09 18.45166 02 14 35.59 +13 06 47.7 20.5 V 691 – Steward Observatory, Kitt Peak-Spacewatch MPS 297782
2009 09 18.45412 02 14 35.54 +13 06 46.8 20.6 V 691 – Steward Observatory, Kitt Peak-Spacewatch MPS 297782
2009 09 22.44348 02 13 06.71 +12 49 49.4 20.5 V 691 – Steward Observatory, Kitt Peak-Spacewatch MPS 445890
2009 09 22.46115 02 13 06.23 +12 49 44.1 20.6 V 691 – Steward Observatory, Kitt Peak-Spacewatch MPS 445890
2009 09 22.47883 02 13 05.72 +12 49 39.2 20.5 V 691 – Steward Observatory, Kitt Peak-Spacewatch MPS 445890
2009 09 26.41285 02 11 13.35 +12 30 32.3 20.3 V 691 – Steward Observatory, Kitt Peak-Spacewatch MPS 297782
2009 09 26.43049 02 11 12.72 +12 30 26.3 20.3 V 691 – Steward Observatory, Kitt Peak-Spacewatch MPS 297782
2009 09 26.44814 02 11 12.14 +12 30 20.9 20.3 V 691 – Steward Observatory, Kitt Peak-Spacewatch MPS 297782
2009 10 02.25647 02 07 45.91 +11 58 11.5 20.6 V G96 – Mt. Lemmon Survey MPS 297782
2009 10 02.26413 02 07 45.62 +11 58 09.6 20.1 V G96 – Mt. Lemmon Survey MPS 297782
2009 10 02.27165 02 07 45.30 +11 58 06.8 20.5 V G96 – Mt. Lemmon Survey MPS 297782
2009 10 02.27937 02 07 45.01 +11 58 04.0 20.6 V G96 – Mt. Lemmon Survey MPS 297782
2009 10 26.12753 01 48 40.07 +09 18 40.1 20.3 V 691 – Steward Observatory, Kitt Peak-Spacewatch MPS 300769
2009 10 26.14474 01 48 39.19 +09 18 33.0 20.3 V 691 – Steward Observatory, Kitt Peak-Spacewatch MPS 300769
2009 10 26.16193 01 48 38.29 +09 18 26.5 20.5 V 691 – Steward Observatory, Kitt Peak-Spacewatch MPS 300769
2009 11 09.07208 01 38 06.16 +07 52 51.9 20.9 V 691 – Steward Observatory, Kitt Peak-Spacewatch MPS 302237
2009 11 09.09313 01 38 05.32 +07 52 45.7 20.7 V 691 – Steward Observatory, Kitt Peak-Spacewatch MPS 302237
2009 11 09.11759 01 38 04.35 +07 52 38.2 20.5 V 691 – Steward Observatory, Kitt Peak-Spacewatch MPS 302237
2009 11 20.08636 01 32 16.55 +07 03 52.6 20.9 V 691 – Steward Observatory, Kitt Peak-Spacewatch MPS 303387
2009 11 20.11022 01 32 15.96 +07 03 47.8 20.7 V 691 – Steward Observatory, Kitt Peak-Spacewatch MPS 303387
2009 11 20.13409 01 32 15.37 +07 03 42.6 20.5 V 691 – Steward Observatory, Kitt Peak-Spacewatch MPS 303387
2012 03 28.95181 13 27 25.62 -09 00 19.4 20.4 R B67 – Sternwarte Mirasteilas, Falera MPS 418525
2012 03 28.96854 13 27 24.89 -09 00 13.6 20.4 R B67 – Sternwarte Mirasteilas, Falera MPS 418525
2012 03 28.98527 13 27 24.10 -09 00 07.2 20.2 R B67 – Sternwarte Mirasteilas, Falera MPS 418525
2012 04 01.38087 13 24 48.24 -08 39 24.5 22.0 V G96 – Mt. Lemmon Survey MPS 418525
2012 04 01.38896 13 24 47.88 -08 39 21.9 20.8 V G96 – Mt. Lemmon Survey MPS 418525
2012 04 01.39713 13 24 47.52 -08 39 19.0 22.4 V G96 – Mt. Lemmon Survey MPS 418525
2012 04 01.40531 13 24 47.08 -08 39 15.5 21.3 V G96 – Mt. Lemmon Survey MPS 418525
2012 04 26.40069 13 04 37.999 -05 57 51.31 21.0 r F51 – Pan-STARRS 1, Haleakala MPS 422799
2012 04 26.41125 13 04 37.503 -05 57 47.42 21.0 r F51 – Pan-STARRS 1, Haleakala MPS 422799
2012 05 14.23822 12 54 11.70 -04 28 46.3 21.3 V G96 – Mt. Lemmon Survey MPS 424886
2012 05 14.24465 12 54 11.52 -04 28 44.0 21.2 V G96 – Mt. Lemmon Survey MPS 424886
2012 05 14.25110 12 54 11.37 -04 28 43.0 21.2 V G96 – Mt. Lemmon Survey MPS 424886
2012 05 14.25753 12 54 11.16 -04 28 40.6 20.6 V G96 – Mt. Lemmon Survey MPS 424886
2013 07 30.31109 22 48 04.49 -01 16 56.4 20.4 V 691 – Steward Observatory, Kitt Peak-Spacewatch MPS 472974
2013 07 30.32876 22 48 04.11 -01 16 58.1 20.3 V 691 – Steward Observatory, Kitt Peak-Spacewatch MPS 472974
2013 07 30.34642 22 48 03.77 -01 17 00.2 20.0 V 691 – Steward Observatory, Kitt Peak-Spacewatch MPS 472974
2013 08 09.37590 22 43 43.21 -01 46 32.7 20.6 V 703 – Catalina Sky Survey MPS 473645
2013 08 09.38236 22 43 42.99 -01 46 32.9 19.7 V 703 – Catalina Sky Survey MPS 473645
2013 08 09.38888 22 43 42.67 -01 46 34.4 19.4 V 703 – Catalina Sky Survey MPS 473645
2013 08 09.39535 22 43 42.49 -01 46 36.5 19.9 V 703 – Catalina Sky Survey MPS 473645
2013 08 12.47323 22 41 56.108 -01 59 47.82 19.9 w F51 – Pan-STARRS 1, Haleakala MPS 474320
2013 08 12.48823 22 41 55.528 -01 59 51.93 19.8 w F51 – Pan-STARRS 1, Haleakala MPS 474320
2013 08 12.50323 22 41 54.938 -01 59 56.04 19.9 w F51 – Pan-STARRS 1, Haleakala MPS 474320
2013 08 17.43413 22 38 43.881 -02 24 41.83 19.5 i F51 – Pan-STARRS 1, Haleakala MPS 474320
2013 08 17.44557 22 38 43.384 -02 24 45.47 19.5 i F51 – Pan-STARRS 1, Haleakala MPS 474320
2013 08 17.50066 22 38 40.968 -02 25 03.50 19.6 r F51 – Pan-STARRS 1, Haleakala MPS 474320
2013 08 17.51110 22 38 40.512 -02 25 06.90 19.5 r F51 – Pan-STARRS 1, Haleakala MPS 474320
2013 08 28.26403 22 30 47.61 -03 31 21.1 19.4 V G96 – Mt. Lemmon Survey MPS 474846
2013 08 28.26876 22 30 47.39 -03 31 22.9 19.4 V G96 – Mt. Lemmon Survey MPS 474847
2013 08 28.27347 22 30 47.16 -03 31 24.9 19.2 V G96 – Mt. Lemmon Survey MPS 474847
2013 08 28.27815 22 30 46.94 -03 31 26.7 19.0 V G96 – Mt. Lemmon Survey MPS 474847
2013 09 02.22387 22 27 01.45 -04 05 30.6 19.3 V G96 – Mt. Lemmon Survey MPS 476083
2013 09 02.23034 22 27 01.25 -04 05 33.8 18.9 V 703 – Catalina Sky Survey MPS 476083
2013 09 02.23081 22 27 01.13 -04 05 33.5 19.2 V G96 – Mt. Lemmon Survey MPS 476083
2013 09 02.23784 22 27 00.79 -04 05 36.6 19.3 V G96 – Mt. Lemmon Survey MPS 476083
2013 09 02.23874 22 27 00.77 -04 05 37.1 19.3 V 703 – Catalina Sky Survey MPS 476083
2013 09 02.24483 22 27 00.45 -04 05 39.4 19.2 V G96 – Mt. Lemmon Survey MPS 476083
2013 09 02.24719 22 27 00.38 -04 05 40.2 19.2 V 703 – Catalina Sky Survey MPS 476083
2013 09 02.25557 22 27 00.01 -04 05 43.7 19.6 V 703 – Catalina Sky Survey MPS 476083
2013 09 03.00953 22 26 25.85 -04 11 03.1   J95 – Great Shefford MPS 476083
2013 09 03.01884 22 26 25.40 -04 11 06.6   J95 – Great Shefford MPS 476083
2013 09 03.02933 22 26 24.94 -04 11 11.3 19.3 R J95 – Great Shefford MPS 476083
